TimeAST,TemperatureF,Dew PointF,Humidity,Sea Level PressureIn,VisibilityMPH,Wind Direction,Wind SpeedMPH,Gust SpeedMPH,PrecipitationIn,Events,Conditions,WindDirDegrees,DateUTC
12:56 AM,80.1,75.0,85,29.95,10.0,Calm,Calm,-,N/A,,Partly Cloudy,0,2012-11-19 04:56:00
1:56 AM,79.0,73.9,84,29.94,10.0,Calm,Calm,-,N/A,,Partly Cloudy,0,2012-11-19 05:56:00
2:56 AM,79.0,73.9,84,29.93,10.0,Calm,Calm,-,N/A,,Clear,0,2012-11-19 06:56:00
3:56 AM,78.1,73.9,87,29.92,10.0,Calm,Calm,-,N/A,,Partly Cloudy,0,2012-11-19 07:56:00
4:56 AM,78.1,73.9,87,29.92,10.0,Calm,Calm,-,N/A,,Scattered Clouds,0,2012-11-19 08:56:00
5:56 AM,78.1,73.9,87,29.93,10.0,Calm,Calm,-,N/A,,Scattered Clouds,0,2012-11-19 09:56:00
6:56 AM,78.1,73.0,84,29.94,10.0,Calm,Calm,-,N/A,,Scattered Clouds,0,2012-11-19 10:56:00
7:56 AM,81.0,75.0,82,29.95,10.0,Calm,Calm,-,N/A,,Scattered Clouds,0,2012-11-19 11:56:00
8:56 AM,84.0,75.0,74,29.96,10.0,Calm,Calm,-,N/A,,Scattered Clouds,0,2012-11-19 12:56:00
9:56 AM,86.0,73.9,67,29.96,10.0,Variable,3.5,-,N/A,,Scattered Clouds,0,2012-11-19 13:56:00
10:56 AM,84.9,73.9,69,29.94,10.0,North,5.8,-,N/A,,Scattered Clouds,350,2012-11-19 14:56:00
11:56 AM,88.0,75.9,67,29.92,10.0,NNE,9.2,-,N/A,,Mostly Cloudy,30,2012-11-19 15:56:00
12:56 PM,87.1,77.0,72,29.88,10.0,NE,12.7,-,0.00,Rain,Light Rain,50,2012-11-19 16:56:00
1:56 PM,84.0,77.0,79,29.87,10.0,NE,9.2,-,0.00,Rain,Light Rain,40,2012-11-19 17:56:00
2:56 PM,82.9,75.9,79,29.86,10.0,ENE,10.4,-,0.02,,Mostly Cloudy,60,2012-11-19 18:56:00
3:56 PM,82.0,75.9,82,29.85,10.0,East,11.5,-,0.00,,Mostly Cloudy,80,2012-11-19 19:56:00
4:56 PM,82.0,75.0,79,29.86,10.0,East,5.8,-,N/A,,Scattered Clouds,90,2012-11-19 20:56:00
5:56 PM,81.0,75.9,85,29.87,10.0,West,4.6,-,N/A,,Mostly Cloudy,270,2012-11-19 21:56:00
6:56 PM,81.0,75.0,82,29.88,10.0,West,5.8,-,N/A,,Mostly Cloudy,260,2012-11-19 22:56:00
7:56 PM,80.1,75.0,85,29.89,10.0,WNW,4.6,-,N/A,,Scattered Clouds,290,2012-11-19 23:56:00
8:56 PM,80.1,75.0,85,29.90,10.0,West,3.5,-,N/A,,Scattered Clouds,280,2012-11-20 00:56:00
9:56 PM,80.1,73.9,81,29.90,10.0,West,3.5,-,N/A,,Scattered Clouds,260,2012-11-20 01:56:00
10:56 PM,79.0,73.9,84,29.90,10.0,West,3.5,-,N/A,,Scattered Clouds,260,2012-11-20 02:56:00
11:56 PM,80.1,73.9,81,29.88,10.0,Calm,Calm,-,N/A,,Scattered Clouds,0,2012-11-20 03:56:00